N312YH KSAN-KLAX

Flight info

Callsign N312YH
Flight time 0h 25m
Altitude 10000
Route CWARD2 SLI
Aircraft C25C/M-SDE2E3FGHRWXY/LB1

Departure

Time 2026-05-06 00:28
Airport San Diego International Airport (KSAN)

Arrival

Time 2026-05-06 00:54
Airport Los Angeles International Airport (KLAX)
Time Latitude Longitude Altitude Speed Heading
2026-05-06 00:19 32.73389 -117.17984 21 ft 0 kts 283°
2026-05-06 00:25 32.73388 -117.17981 21 ft 2 kts 283°
2026-05-06 00:25 32.73385 -117.17963 22 ft 2 kts 283°
2026-05-06 00:25 32.73381 -117.17943 20 ft 2 kts 283°
2026-05-06 00:26 32.73379 -117.17935 20 ft 0 kts 283°
2026-05-06 00:26 32.73379 -117.17936 20 ft 1 kts 276°
2026-05-06 00:26 32.73356 -117.17950 20 ft 12 kts 200°
2026-05-06 00:26 32.73261 -117.17980 17 ft 13 kts 181°
2026-05-06 00:27 32.73212 -117.17898 16 ft 16 kts 106°
2026-05-06 00:27 32.73175 -117.17745 17 ft 20 kts 105°
2026-05-06 00:27 32.73128 -117.17585 16 ft 21 kts 131°
2026-05-06 00:27 32.73023 -117.17560 17 ft 16 kts 250°
2026-05-06 00:28 32.73061 -117.17754 15 ft 51 kts 286°
2026-05-06 00:28 32.73266 -117.18599 107 ft 153 kts 286°
2026-05-06 00:28 32.73658 -117.20050 947 ft 208 kts 288°
2026-05-06 00:28 32.74237 -117.21690 2493 ft 218 kts 298°
2026-05-06 00:29 32.75174 -117.23169 3726 ft 231 kts 308°
2026-05-06 00:29 32.76146 -117.24736 4877 ft 242 kts 302°
2026-05-06 00:29 32.77057 -117.26462 6054 ft 250 kts 301°
2026-05-06 00:29 32.77991 -117.28238 7213 ft 255 kts 302°
2026-05-06 00:30 32.78956 -117.30028 8415 ft 258 kts 302°
2026-05-06 00:30 32.79940 -117.31831 9582 ft 265 kts 305°
2026-05-06 00:30 32.81120 -117.33584 10010 ft 283 kts 307°
2026-05-06 00:30 32.82342 -117.35511 10006 ft 299 kts 306°
2026-05-06 00:31 32.83202 -117.36864 10003 ft 314 kts 307°
2026-05-06 00:31 32.84549 -117.38965 10002 ft 319 kts 307°
2026-05-06 00:31 32.85906 -117.41051 9999 ft 314 kts 307°
2026-05-06 00:31 32.87226 -117.43102 9985 ft 309 kts 307°
2026-05-06 00:32 32.88514 -117.45103 9985 ft 306 kts 307°
2026-05-06 00:32 32.89807 -117.47115 9985 ft 304 kts 307°
2026-05-06 00:32 32.91090 -117.49112 9986 ft 302 kts 307°
2026-05-06 00:32 32.92365 -117.51091 10010 ft 299 kts 307°
2026-05-06 00:33 32.93627 -117.53062 10010 ft 298 kts 307°
2026-05-06 00:33 32.94876 -117.55000 10007 ft 298 kts 307°
2026-05-06 00:33 32.96131 -117.56963 10005 ft 298 kts 307°
2026-05-06 00:33 32.97396 -117.58928 10004 ft 297 kts 307°
2026-05-06 00:34 32.98650 -117.60893 10003 ft 297 kts 308°
2026-05-06 00:34 32.99896 -117.62831 10009 ft 296 kts 307°
2026-05-06 00:34 33.01159 -117.64806 10008 ft 304 kts 308°
2026-05-06 00:34 33.02471 -117.66855 10007 ft 317 kts 308°
2026-05-06 00:35 33.03824 -117.68970 10017 ft 319 kts 308°
2026-05-06 00:35 33.05175 -117.71087 10014 ft 320 kts 308°
2026-05-06 00:35 33.06553 -117.73135 10020 ft 321 kts 314°
2026-05-06 00:35 33.08260 -117.74858 10021 ft 322 kts 321°
2026-05-06 00:36 33.09975 -117.76598 10014 ft 323 kts 320°
2026-05-06 00:36 33.11686 -117.78342 10014 ft 324 kts 320°
2026-05-06 00:36 33.13413 -117.80107 10015 ft 327 kts 320°
2026-05-06 00:36 33.15150 -117.81870 10018 ft 326 kts 320°
2026-05-06 00:37 33.16851 -117.83601 10013 ft 322 kts 321°
2026-05-06 00:37 33.18558 -117.85318 10014 ft 319 kts 323°
2026-05-06 00:37 33.20539 -117.86447 10005 ft 316 kts 345°
2026-05-06 00:37 33.22738 -117.87065 10002 ft 314 kts 347°
2026-05-06 00:38 33.24852 -117.87576 10001 ft 313 kts 349°
2026-05-06 00:38 33.26988 -117.88069 10000 ft 312 kts 348°
2026-05-06 00:38 33.29121 -117.88602 10002 ft 312 kts 348°
2026-05-06 00:38 33.31203 -117.89130 9928 ft 304 kts 348°
2026-05-06 00:39 33.33276 -117.89649 9611 ft 299 kts 349°
2026-05-06 00:39 33.35210 -117.90131 9269 ft 272 kts 349°
2026-05-06 00:39 33.37029 -117.90581 8901 ft 263 kts 349°
2026-05-06 00:39 33.38856 -117.91077 8524 ft 274 kts 345°
2026-05-06 00:40 33.40700 -117.91793 8154 ft 280 kts 344°
2026-05-06 00:40 33.42561 -117.92441 7793 ft 277 kts 345°
2026-05-06 00:40 33.44353 -117.93080 7426 ft 261 kts 344°
2026-05-06 00:40 33.46073 -117.93706 7114 ft 252 kts 343°
2026-05-06 00:41 33.47703 -117.94302 7026 ft 239 kts 344°
2026-05-06 00:41 33.49259 -117.94869 7003 ft 232 kts 344°
2026-05-06 00:41 33.50304 -117.95247 6995 ft 239 kts 344°
2026-05-06 00:41 33.52472 -117.96035 6996 ft 239 kts 343°
2026-05-06 00:42 33.54049 -117.96609 6995 ft 235 kts 343°
2026-05-06 00:42 33.55608 -117.97177 6994 ft 233 kts 344°
2026-05-06 00:42 33.57154 -117.97741 6995 ft 231 kts 343°
2026-05-06 00:42 33.58692 -117.98300 6993 ft 231 kts 343°
2026-05-06 00:43 33.60231 -117.98861 6997 ft 231 kts 343°
2026-05-06 00:43 33.61765 -117.99420 6998 ft 230 kts 343°
2026-05-06 00:43 33.63304 -117.99973 6996 ft 230 kts 343°
2026-05-06 00:43 33.64837 -118.00539 6953 ft 232 kts 343°
2026-05-06 00:44 33.66413 -118.01118 6707 ft 241 kts 343°
2026-05-06 00:44 33.68024 -118.01711 6323 ft 242 kts 343°
2026-05-06 00:44 33.69629 -118.02306 5968 ft 241 kts 342°
2026-05-06 00:44 33.71218 -118.02896 5612 ft 237 kts 342°
2026-05-06 00:45 33.72785 -118.03474 5252 ft 235 kts 342°
2026-05-06 00:45 33.74351 -118.04046 4856 ft 235 kts 342°
2026-05-06 00:45 33.75904 -118.04604 4448 ft 236 kts 342°
2026-05-06 00:45 33.77479 -118.05161 4037 ft 237 kts 342°
2026-05-06 00:46 33.79087 -118.05725 3685 ft 236 kts 342°
2026-05-06 00:46 33.80641 -118.06262 3588 ft 229 kts 342°
2026-05-06 00:46 33.82126 -118.06797 3556 ft 220 kts 341°
2026-05-06 00:46 33.83593 -118.07334 3551 ft 222 kts 341°
2026-05-06 00:47 33.85078 -118.07874 3555 ft 225 kts 341°
2026-05-06 00:47 33.86579 -118.08418 3580 ft 226 kts 341°
2026-05-06 00:47 33.88064 -118.08955 3582 ft 219 kts 341°
2026-05-06 00:47 33.89503 -118.09476 3576 ft 214 kts 341°
2026-05-06 00:48 33.90918 -118.09988 3579 ft 211 kts 341°
2026-05-06 00:48 33.92307 -118.10521 3576 ft 208 kts 335°
2026-05-06 00:48 33.93306 -118.11730 3578 ft 203 kts 296°
2026-05-06 00:48 33.93877 -118.13257 3582 ft 203 kts 292°
2026-05-06 00:49 33.94428 -118.14829 3583 ft 204 kts 291°
2026-05-06 00:49 33.94932 -118.16407 3518 ft 196 kts 286°
2026-05-06 00:49 33.95275 -118.17942 3269 ft 183 kts 284°
2026-05-06 00:49 33.95589 -118.19368 3200 ft 169 kts 281°
2026-05-06 00:50 33.95570 -118.20764 3027 ft 166 kts 261°
2026-05-06 00:50 33.95371 -118.22134 2783 ft 167 kts 261°
2026-05-06 00:50 33.95195 -118.23508 2551 ft 165 kts 263°
2026-05-06 00:50 33.95071 -118.24882 2355 ft 163 kts 264°
2026-05-06 00:51 33.94931 -118.26211 2199 ft 159 kts 262°
2026-05-06 00:51 33.94786 -118.27552 1994 ft 163 kts 263°
2026-05-06 00:51 33.94665 -118.28906 1757 ft 163 kts 264°
2026-05-06 00:51 33.94560 -118.30266 1516 ft 165 kts 264°
2026-05-06 00:52 33.94414 -118.31641 1251 ft 164 kts 260°
2026-05-06 00:52 33.94259 -118.32981 1128 ft 160 kts 262°
2026-05-06 00:52 33.94141 -118.34191 949 ft 133 kts 262°
2026-05-06 00:52 33.94038 -118.35246 653 ft 122 kts 263°
2026-05-06 00:53 33.93946 -118.36211 465 ft 110 kts 264°
2026-05-06 00:53 33.93852 -118.37074 348 ft 101 kts 262°
2026-05-06 00:53 33.93773 -118.37919 192 ft 102 kts 257°
2026-05-06 00:53 33.93693 -118.38709 118 ft 83 kts 262°
2026-05-06 00:54 33.93650 -118.39138 117 ft 19 kts 261°
2026-05-06 00:54 33.93620 -118.39341 117 ft 21 kts 236°
2026-05-06 00:54 33.93508 -118.39383 119 ft 15 kts 224°
2026-05-06 00:54 33.93486 -118.39522 119 ft 29 kts 262°
2026-05-06 00:55 33.93459 -118.39780 119 ft 20 kts 262°
2026-05-06 00:55 33.93397 -118.39813 119 ft 14 kts 187°
2026-05-06 00:55 33.93290 -118.39850 117 ft 18 kts 238°
2026-05-06 00:55 33.93278 -118.39873 119 ft 0 kts 236°